"Pseudo-MPEC" for P10OSPY

Created 2019 Jun 15 19:08:41 UT using Find_Orb

Click here for an explanation of pseudo-MPECs

 
 Astrometry: 
     P10OSPY  C2019 06 01G_,;YV9f:FIdAAstrometrySH.KgEAhcFJ42WEaSF_bY;!E/GHtBF52
     P10OSPY  C2019 06 01eMjMx2rs5?%$,6#GiJ!)fZxAZ.B(\dm//@aAl4u\S`9jc:4g;=SPF52
     P10OSPY  C2019 06 01oN0Wp895`DZ=?'Q:c_oIR_fmsT.ja^:6Hq`aredacted;1O!gs[+F52
     P10OSPY  C2019 06 01l\a%u0(NIIAw#)gB'.jSoQdD,+rB6^MYHiv9Iq6!WEC9S3l?0!K;F52
     P10OSPY  C2019 06 09Mm,k,YclickKJ[n$2-N)wT*/SMHa;n=ZX_ME-3k9l=(0A:rICIX(F51
     P10OSPY  C2019 06 09X1UZLJ(j*here`bjh.Q!yjHoaPY(D+RAU0I3uYHH)PlhkT23c4oSF51
     P10OSPY  C2019 06 09\dnfDvdO(,^lULB4tjr$6`ojr(a[qVh-A\N?28H;DaaT3)B-M:ecF51
     P10OSPY KC2019 06 115.rqo-hKuvFW$?DB_;)I*k#W,Bu`W)YOx@=#m$Mqwqh?0)H1,owuH21
     P10OSPY KC2019 06 11)!ju*#$\wB:9iA;;l)5#f7hr07I+=S#?wSITW`QSECrf8g2ufor5H21
     P10OSPY KC2019 06 11anW3$n\c2ig+@tTt+n_n%\fEt.WodG0X$w\MY9IADC;RrFGx_o#AH21
     P10OSPY  C2019 06 11.38216 21 55 20.18 +06 24 05.8    ~6B9b 22.2 GVNEOCPI52
     P10OSPY  C2019 06 11.38383 21 55 20.33 +06 24 08.1    ~6B9b 22.1 GVNEOCPI52
     P10OSPY  C2019 06 11.38550 21 55 20.41 +06 24 10.6    ~6B9b       VNEOCPI52
     P10OSPY  C2019 06 116oDexplanationYd.Ng_K#f+W%.x#+mU#:V!SLXu4j`n/Ht7i3cmF51
     P10OSPY  C2019 06 11yH$$0#[;p7?dGtM-miA7)5FRd8AQ!hQ#m/3pk(@\!+)v#1]pX-*nF51
     P10OSPY  C2019 06 13.\2FWc!Fn$9$kcIs)+OhhKkybaT@I^hWtTWQXQf6DD'-mTkR)3A.F51
     P10OSPY  C2019 06 13%tp@NkCfY:41F,iwr%B=`)0oNcxb^aA21;a_'\9BpKhVn?NN;E4EF51
     P10OSPY  C2019 06 13V)Ms\51C0CTL^1efmXb=)PsRI!eG:dWx7*Z';W78e=wv\ci;%`DUF51

Station data:
(F51) Pan-STARRS 1, Haleakala  (N20.707235 W156.255910)  US/Hawaii.
   Observers N. Primak, A. Schultz, S. Watters, J. Thiel, T. Goggia. Measurer
   PS1 Science Consortium. 1.8-m Ritchey-Chrétien + CCD.
(F52) Pan-STARRS 2, Haleakala  (N20.707384 W156.255910)  US/Hawaii. 1.8-m
   Ritchey-Chrétien + CCD.
(H21) Astronomical Research Observatory, Westfield  (N39.483057 W87.968270)
   US/Illinois. 0.76-m f/3.0 astrograph + CCD.
(I52) Steward Observatory, Mt. Lemmon Station  (N32.442547 W110.788920)
   US/Arizona.  Observers T. A. Pruyne, B. M. Africano, E. J. Christensen, G.
   A. Farneth, D. C. Fuls, A. R. Gibbs, A. D. Grauer, H. Groeller, J. A.
   Johnson, R. A. Kowalski, S. M. Larson, G. J. Leonard, R. L. Seaman, F. C.
   Shelly. 1.0-m reflector + CCD.

Orbital elements:  P10OSPY
   Perihelion 2019 Jul 19.492266 +/- 0.358 TT = 11:48:51 (JD 2458683.992266)
Epoch 2019 Jun 13.0 TT = JDT 2458647.5   Earth MOID: 0.7927   AutoNEOCP
M 351.31414612 +/- 0.15             (J2000 ecliptic)
n   0.23801903 +/- 0.00206          Peri.   65.75106 +/- 0.21
a   2.57866498 +/- 0.0149           Node   253.07988 +/- 0.07
e   0.3262659 +/- 0.00319           Incl.   16.44570 +/- 0.021
P   4.14                   H 18.6   G  0.15   U  8.6  
q 1.73733440 +/- 0.00182    Q 3.41999557 +/- 0.0284
From 18 observations 2019 June 1-13; mean residual 0".13
Residuals in arcseconds: 
190601 F52  .05-  .15+    190609 F51  .10+  .03-    190611 I52  .17-  .16+    
190601 F52  .09+  .17-    190611 H21  .14-  .01+    190611 F51  .08+  .09-    
190601 F52  .13+  .09-    190611 H21  .08-  .20+    190611 F51  .04+  .14-    
190601 F52  .18-  .13+    190611 H21  .20+  .12+    190613 F51  .04-  .09+    
190609 F51  .00   .04-    190611 I52  .34-  .01+    190613 F51  .12+  .10-    
190609 F51  .01+  .12-    190611 I52  .27+  .02-    190613 F51  .04-  .07-    

Ephemerides (geocentric):
Date (UTC) HH   RA              Dec         delta   r     elong  mag " sig PA
---- -- -- --  -------------   -----------  ------ ------ -----  --- ---- ---
2019 06 15 19  22 00 03.914   +08 06 27.61  1.1524 1.7553 107.9 21.6 .485 131
2019 06 15 20  22 00 06.474   +08 07 25.67  1.1520 1.7553 108.0 21.6 .492 131
2019 06 15 21  22 00 09.031   +08 08 23.74  1.1517 1.7552 108.0 21.6 .499 131
2019 06 15 22  22 00 11.586   +08 09 21.81  1.1514 1.7552 108.0 21.6 .506 131
2019 06 15 23  22 00 14.138   +08 10 19.88  1.1511 1.7551 108.0 21.6 .513 131
2019 06 16 00  22 00 16.688   +08 11 17.94  1.1507 1.7551 108.1 21.6 .520 131
2019 06 16 01  22 00 19.235   +08 12 16.01  1.1504 1.7551 108.1 21.6 .527 131
2019 06 16 02  22 00 21.780   +08 13 14.08  1.1501 1.7550 108.1 21.6 .534 131
2019 06 16 03  22 00 24.323   +08 14 12.15  1.1497 1.7550 108.1 21.6 .541 131
2019 06 16 04  22 00 26.864   +08 15 10.22  1.1494 1.7549 108.1 21.6 .548 131
2019 06 16 05  22 00 29.401   +08 16 08.29  1.1491 1.7549 108.2 21.6 .555 131
2019 06 16 06  22 00 31.937   +08 17 06.36  1.1488 1.7548 108.2 21.6 .562 131
2019 06 16 07  22 00 34.470   +08 18 04.43  1.1484 1.7548 108.2 21.6 .569 131
2019 06 16 08  22 00 37.001   +08 19 02.50  1.1481 1.7547 108.2 21.6 .577 131
2019 06 16 09  22 00 39.529   +08 20 00.57  1.1478 1.7547 108.2 21.6 .584 131
2019 06 16 10  22 00 42.055   +08 20 58.64  1.1475 1.7547 108.3 21.6 .591 131
2019 06 16 11  22 00 44.579   +08 21 56.70  1.1471 1.7546 108.3 21.6 .599 131
2019 06 16 12  22 00 47.100   +08 22 54.77  1.1468 1.7546 108.3 21.6 .606 131
2019 06 16 13  22 00 49.619   +08 23 52.84  1.1465 1.7545 108.3 21.6 .614 131
2019 06 16 14  22 00 52.135   +08 24 50.91  1.1462 1.7545 108.3 21.6 .621 131
2019 06 16 15  22 00 54.649   +08 25 48.98  1.1458 1.7544 108.4 21.6 .629 131
2019 06 16 16  22 00 57.161   +08 26 47.05  1.1455 1.7544 108.4 21.6 .636 131
2019 06 16 17  22 00 59.670   +08 27 45.12  1.1452 1.7544 108.4 21.6 .644 131
2019 06 16 18  22 01 02.177   +08 28 43.19  1.1449 1.7543 108.4 21.6 .651 131
2019 06 16 19  22 01 04.681   +08 29 41.26  1.1445 1.7543 108.4 21.6 .659 131
2019 06 16 20  22 01 07.183   +08 30 39.33  1.1442 1.7542 108.5 21.6 .667 131
2019 06 16 21  22 01 09.683   +08 31 37.39  1.1439 1.7542 108.5 21.6 .675 131
2019 06 16 22  22 01 12.180   +08 32 35.46  1.1436 1.7541 108.5 21.6 .682 131
2019 06 16 23  22 01 14.675   +08 33 33.53  1.1432 1.7541 108.5 21.6 .690 131
2019 06 17 00  22 01 17.167   +08 34 31.60  1.1429 1.7541 108.5 21.6 .698 131
2019 06 17 01  22 01 19.657   +08 35 29.66  1.1426 1.7540 108.6 21.6 .706 131
2019 06 17 02  22 01 22.144   +08 36 27.73  1.1423 1.7540 108.6 21.6 .714 131
2019 06 17 03  22 01 24.629   +08 37 25.80  1.1419 1.7539 108.6 21.6 .722 131
2019 06 17 04  22 01 27.112   +08 38 23.86  1.1416 1.7539 108.6 21.6 .730 131
2019 06 17 05  22 01 29.592   +08 39 21.93  1.1413 1.7538 108.6 21.5 .738 131
2019 06 17 06  22 01 32.070   +08 40 19.99  1.1410 1.7538 108.7 21.5 .746 131
2019 06 17 07  22 01 34.545   +08 41 18.05  1.1406 1.7538 108.7 21.5 .755 131
2019 06 17 08  22 01 37.018   +08 42 16.12  1.1403 1.7537 108.7 21.5 .763 131
2019 06 17 09  22 01 39.488   +08 43 14.18  1.1400 1.7537 108.7 21.5 .771 131
2019 06 17 10  22 01 41.956   +08 44 12.24  1.1397 1.7536 108.7 21.5 .779 131
2019 06 17 11  22 01 44.422   +08 45 10.30  1.1394 1.7536 108.8 21.5 .788 131
2019 06 17 12  22 01 46.885   +08 46 08.37  1.1390 1.7536 108.8 21.5 .796 131
2019 06 17 13  22 01 49.345   +08 47 06.43  1.1387 1.7535 108.8 21.5 .804 131
2019 06 17 14  22 01 51.804   +08 48 04.49  1.1384 1.7535 108.8 21.5 .813 131
2019 06 17 15  22 01 54.259   +08 49 02.54  1.1381 1.7534 108.9 21.5 .821 131
2019 06 17 16  22 01 56.713   +08 50 00.60  1.1377 1.7534 108.9 21.5 .830 131
2019 06 17 17  22 01 59.164   +08 50 58.66  1.1374 1.7533 108.9 21.5 .838 131
2019 06 17 18  22 02 01.612   +08 51 56.72  1.1371 1.7533 108.9 21.5 .847 131